TimeMST,TemperatureF,Dew PointF,Humidity,Sea Level PressureIn,VisibilityMPH,Wind Direction,Wind SpeedMPH,Gust SpeedMPH,PrecipitationIn,Events,Conditions,WindDirDegrees,DateUTC
12:58 AM,76.6,26.1,15,29.67,8.0,Calm,Calm,-,N/A,,Clear,0,2013-05-22 07:58:00
1:58 AM,78.4,20.1,11,29.66,10.0,SW,8.1,-,N/A,,Clear,220,2013-05-22 08:58:00
2:58 AM,76.5,26.8,16,29.67,9.0,Calm,Calm,-,N/A,,Clear,0,2013-05-22 09:58:00
3:58 AM,75.2,28.8,18,29.67,8.0,NNE,2.3,-,N/A,,Clear,30,2013-05-22 10:58:00
4:58 AM,67.6,34.7,30,29.68,10.0,NNE,2.3,-,N/A,,Clear,20,2013-05-22 11:58:00
5:58 AM,68.9,35.6,29,29.70,10.0,South,3.5,-,N/A,,Clear,190,2013-05-22 12:58:00
6:58 AM,73.9,32.0,21,29.71,10.0,ESE,2.3,-,N/A,,Clear,110,2013-05-22 13:58:00
7:58 AM,76.8,36.9,24,29.73,10.0,NNE,5.8,-,N/A,,Clear,20,2013-05-22 14:58:00
8:58 AM,82.4,35.1,18,29.73,7.0,NE,4.6,-,N/A,,Clear,40,2013-05-22 15:58:00
9:58 AM,88.3,29.8,12,29.72,10.0,ESE,6.9,-,N/A,,Clear,120,2013-05-22 16:58:00
10:58 AM,90.7,30.4,12,29.71,10.0,South,5.8,-,N/A,,Clear,170,2013-05-22 17:58:00
11:58 AM,93.0,24.6,9,29.69,10.0,Variable,2.3,-,N/A,,Clear,0,2013-05-22 18:58:00
12:58 PM,96.3,26.6,8,29.66,10.0,Variable,2.3,-,N/A,,Partly Cloudy,0,2013-05-22 19:58:00
1:58 PM,96.8,23.7,7,29.63,10.0,WSW,9.2,-,N/A,,Clear,240,2013-05-22 20:58:00
2:58 PM,98.6,27.0,8,29.60,10.0,South,12.7,17.3,N/A,,Clear,190,2013-05-22 21:58:00
3:13 PM,100.4,28.4,8,29.64,10.0,SW,13.8,18.4,N/A,,Clear,230,2013-05-22 22:13:00
3:58 PM,100.2,26.4,7,29.57,10.0,SSW,13.8,23.0,N/A,,Clear,200,2013-05-22 22:58:00
4:26 PM,100.4,26.6,7,29.61,10.0,South,13.8,26.5,N/A,,Clear,190,2013-05-22 23:26:00
4:58 PM,100.4,26.4,7,29.56,10.0,SSW,12.7,25.3,N/A,,Clear,210,2013-05-22 23:58:00
5:58 PM,99.1,25.5,7,29.55,10.0,SW,20.7,-,N/A,,Clear,230,2013-05-23 00:58:00
6:58 PM,95.5,20.7,7,29.57,10.0,SW,18.4,-,N/A,,Clear,220,2013-05-23 01:58:00
7:58 PM,90.3,24.8,9,29.59,10.0,SSW,15.0,-,N/A,,Clear,210,2013-05-23 02:58:00
8:58 PM,87.3,25.7,11,29.61,10.0,SSW,15.0,-,N/A,,Clear,210,2013-05-23 03:58:00
9:58 PM,84.7,25.2,11,29.63,10.0,SW,15.0,-,N/A,,Clear,230,2013-05-23 04:58:00
10:58 PM,82.4,23.4,11,29.63,10.0,SW,16.1,-,N/A,,Clear,220,2013-05-23 05:58:00
11:58 PM,81.5,26.6,13,29.64,10.0,SW,17.3,-,N/A,,Clear,230,2013-05-23 06:58:00